[[{"header":{"parameterUnit":"m.s-1","parameterCategory":1,"la1":30.2991,"la2":30.254,"lo1":-89.0895,"lo2":-89.0444,"dy":0.0017,"dx":0.0017,"nx":28,"ny":28,"refTime":"2025-04-30T03:00:00:Z","depth":0,"parameterNumber":2,"parameterNumberName":"U-component_of_WINDS"},"data":[0,0,0,0,0,0,0,0,0,0,0,0,0,0,0,0,0,0,0,0,0,0,0,0,0,0,0,0,0,0,0,0,0,0,0,0,0,0,0,0,0,0,0,0,0,0,0,0,0,0,0,0,0,0,0,0,0,0,-2.2976,-2.2977,0,-2.3103,-2.3104,-2.3106,-2.316,-2.316,-2.316,-2.316,-2.3288,-2.3291,-2.3295,0,0,0,0,0,0,0,0,0,0,0,0,0,-2.2779,-2.2782,-2.2976,-2.2977,-2.2979,-2.3103,-2.3104,-2.3106,-2.316,-2.316,-2.316,-2.316,-2.3287,-2.3291,-2.3295,0,0,0,0,0,0,0,0,0,0,0,0,0,-2.2881,-2.2783,-2.2975,-2.3021,-2.3026,-2.3102,-2.3105,-2.3107,-2.316,-2.316,-2.316,-2.3159,-2.3285,-2.329,-2.3296,-2.3335,0,0,-2.3312,-2.3315,0,0,0,0,0,0,0,0,-2.2875,-2.2888,-2.3013,-2.3018,-2.3024,-2.3115,-2.3082,-2.3183,-2.316,-2.3109,-2.316,-2.3159,-2.3231,-2.324,-2.3265,-2.3341,-2.3347,-2.3313,-2.3316,-2.3318,-2.332,0,0,0,0,0,0,0,-2.2868,-2.2883,-2.3026,-2.3014,-2.3021,-2.3035,-2.3049,-2.3102,-2.317,-2.3114,-2.3118,-2.3132,-2.3234,-2.326,-2.3268,-2.3349,-2.3313,-2.3317,-2.3321,-2.3323,-2.3466,-2.3467,0,0,0,0,0,0,-2.2854,-2.2877,-2.3022,-2.303,-2.2947,-2.3038,-2.3054,-2.3086,-2.317,-2.3182,-2.3133,-2.3135,-2.325,-2.3262,-2.3273,-2.3326,-2.3318,-2.3323,-2.3326,-2.3465,-2.3466,-2.3467,0,0,0,0,0,0,-2.2849,-2.2866,-2.3017,-2.2955,-2.2975,-2.3042,-2.3078,-2.3089,-2.3115,-2.3184,-2.3196,-2.3147,-2.3251,-2.3265,-2.332,-2.3331,-2.3326,-2.3331,-2.3465,-2.3466,-2.3466,-2.3431,0,0,0,0,0,0,-2.2843,-2.2864,-2.288,-2.2955,-2.2978,-2.3062,-2.3079,-2.3092,-2.3125,-2.3128,-2.32,-2.3212,-2.3252,-2.3312,-2.3325,-2.3338,-2.3335,-2.3464,-2.3465,-2.3466,-2.3432,-2.3431,-2.343,0,0,0,0,0,-2.2836,-2.2864,-2.2881,-2.2898,-2.2999,-2.3062,-2.3076,-2.3121,-2.3125,-2.3142,-2.3186,-2.321,-2.3328,-2.3317,-2.3333,-2.3348,-2.3464,-2.3465,-2.3466,-2.3432,-2.3431,-2.343,0,0,0,0,0,0,-2.2788,-2.2875,-2.2894,-2.2947,-2.2997,-2.3071,-2.3094,-2.3118,-2.3168,-2.3169,-2.3223,-2.3239,-2.3289,-2.3324,-2.331,-2.3391,-2.3398,-2.3402,-2.3366,-2.3366,-2.3365,-2.3355,-2.3339,0,0,0,0,0,-2.2784,-2.2829,-2.2902,-2.2942,-2.2966,-2.3025,-2.3055,-2.3086,-2.3139,-2.316,-2.3209,-2.3259,-2.3308,-2.3339,-2.3388,-2.3437,-2.3454,-2.3456,-2.3455,-2.3454,-2.3457,-2.3487,-2.3488,-2.3471,-2.3471,-2.3471,0,0,-2.2776,-2.2829,-2.2853,-2.2934,-2.2976,-2.3021,-2.3043,-2.3089,-2.3123,-2.3167,-2.3222,-2.3259,-2.332,-2.3372,-2.3398,-2.3403,-2.3465,-2.3455,-2.3454,-2.3458,-2.3488,-2.349,-2.3491,-2.3472,-2.3472,-2.3471,0,0,-2.2783,-2.2828,-2.2866,-2.2909,-2.2973,-2.3013,-2.3022,-2.3093,-2.312,-2.3176,-2.3211,-2.3252,-2.3334,-2.3376,-2.3408,-2.3433,-2.3457,-2.3447,-2.3443,-2.3471,-2.3472,-2.3474,-2.3483,-2.3486,-2.345,-2.345,-2.345,0,-2.2764,-2.2834,-2.2883,-2.2928,-2.2962,-2.3006,-2.3045,-2.3084,-2.316,-2.3183,-2.3188,-2.3294,-2.3337,-2.3401,-2.3407,-2.3431,-2.3444,-2.3439,-2.3468,-2.347,-2.3473,-2.3482,-2.3485,-2.3449,-2.3449,-2.3449,-2.3449,0,-2.2808,-2.2855,-2.2879,-2.2953,-2.299,-2.3031,-2.3087,-2.3119,-2.3147,-2.3186,-2.3243,-2.3297,-2.3358,-2.3375,-2.3403,-2.3443,-2.3444,-2.3458,-2.3466,-2.3472,-2.3482,-2.3486,-2.3447,-2.3447,-2.3448,-2.3448,0,0,-2.2788,-2.2889,-2.2897,-2.2932,-2.3007,-2.3044,-2.3088,-2.3149,-2.3175,-2.3227,-2.3265,-2.3335,-2.3349,-2.3385,-2.3417,-2.3442,-2.346,-2.3453,-2.3456,-2.3453,-2.3508,-2.3497,-2.3501,-2.3476,-2.3477,-2.3478,-2.3503,0,-2.2806,-2.2887,-2.2933,-2.2995,-2.304,-2.3083,-2.3122,-2.3172,-2.3209,-2.3253,-2.3295,-2.3344,-2.3358,-2.338,-2.3407,-2.3452,-2.3471,-2.3451,-2.3512,-2.3514,-2.3495,-2.3506,-2.3494,-2.3516,-2.3507,-2.3508,-2.3508,0,-2.2837,-2.2889,-2.2956,-2.3027,-2.3047,-2.3081,-2.3141,-2.3182,-2.324,-2.3266,-2.3307,-2.334,-2.3388,-2.3392,-2.346,-2.3445,-2.3473,-2.3499,-2.3501,-2.3508,-2.3511,-2.3513,-2.3524,-2.3527,-2.3515,-2.3514,-2.3514,0,-2.2817,-2.2903,-2.2955,-2.2983,-2.3066,-2.3089,-2.3125,-2.3183,-2.3217,-2.3269,-2.3291,-2.3348,-2.3379,-2.3422,-2.3469,-2.3468,-2.3532,-2.354,-2.3555,-2.3554,-2.3566,-2.3565,-2.3581,-2.3584,-2.3584,-2.3584,-2.3584,0,-2.2832,-2.2871,-2.2947,-2.2978,-2.3024,-2.3076,-2.312,-2.3159,-2.321,-2.325,-2.3291,-2.3327,-2.3388,-2.3432,-2.3469,-2.352,-2.3533,-2.3556,-2.3565,-2.3552,-2.3549,-2.3571,-2.3571,-2.3585,-2.3585,-2.3585,-2.3584,0,-2.2816,-2.2868,-2.2928,-2.3002,-2.3022,-2.3052,-2.3116,-2.3149,-2.3189,-2.324,-2.3254,-2.3318,-2.3372,-2.3424,-2.3496,-2.3521,-2.3572,-2.3584,-2.3552,-2.3558,-2.357,-2.3568,-2.36,-2.3608,-2.3605,-2.3605,-2.3605,0,-2.2823,-2.2854,-2.2933,-2.2963,-2.2998,-2.3045,-2.3081,-2.3134,-2.3168,-2.3237,-2.3262,-2.3319,-2.3368,-2.3452,-2.3505,-2.356,-2.3575,-2.3582,-2.3583,-2.3569,-2.3575,-2.3572,-2.3576,-2.3581,-2.3581,-2.358,-2.358,0,-2.2828,-2.2853,-2.2902,-2.296,-2.3001,-2.3049,-2.3099,-2.3121,-2.3184,-2.3221,-2.3278,-2.3315,-2.339,-2.3447,-2.3509,-2.3546,-2.3573,-2.358,-2.3586,-2.3573,-2.3553,-2.3564,-2.3549,-2.3578,-2.3579,-2.3579,-2.3579,-2.3579,-2.2824,-2.2855,-2.2915,-2.2968,-2.3012,-2.3057,-2.3092,-2.3137,-2.3185,-2.325,-2.3279,-2.3336,-2.3394,-2.348,-2.3517,-2.3562,-2.3569,-2.3578,-2.358,-2.3582,-2.3579,-2.3546,-2.3574,-2.3574,-2.3574,-2.3574,-2.3574,0,-2.2833,-2.2874,-2.2922,-2.2991,-2.3033,-2.3057,-2.3113,-2.3147,-2.3197,-2.3249,-2.3296,-2.3361,-2.3417,-2.3474,-2.3533,-2.3558,-2.3572,-2.3572,-2.357,-2.3578,-2.357,-2.3559,-2.3559,-2.3559,-2.3559,-2.3559,-2.3559,-2.3559,-2.2842,-2.2894,-2.2926,-2.3001,-2.3042,-2.3098,-2.3129,-2.3171,-2.3213,-2.3284,-2.3331,-2.3368,-2.3422,-2.3485,-2.3537,-2.3553,-2.3572,-2.3568,-2.3587,-2.3578,-2.3579,-2.3579,-2.3569,-2.3572,-2.3572,-2.3592,-2.3592,-2.3592]},{"header":{"parameterUnit":"m.s-1","parameterCategory":1,"la1":30.2991,"la2":30.254,"lo1":-89.0895,"lo2":-89.0444,"dy":0.0017,"dx":0.0017,"nx":28,"ny":28,"refTime":"2025-04-30T03:00:00:Z","depth":0,"parameterNumber":3,"parameterNumberName":"V-component_of_WINDS"},"data":[0,0,0,0,0,0,0,0,0,0,0,0,0,0,0,0,0,0,0,0,0,0,0,0,0,0,0,0,0,0,0,0,0,0,0,0,0,0,0,0,0,0,0,0,0,0,0,0,0,0,0,0,0,0,0,0,0,0,4.869,4.869,0,4.8732,4.8733,4.8733,4.8701,4.8699,4.8698,4.8697,4.8737,4.8739,4.8741,0,0,0,0,0,0,0,0,0,0,0,0,0,4.8578,4.858,4.869,4.869,4.8691,4.8732,4.8733,4.8733,4.8701,4.8699,4.8697,4.8696,4.8736,4.8739,4.8742,0,0,0,0,0,0,0,0,0,0,0,0,0,4.8624,4.8581,4.869,4.868,4.8679,4.8732,4.8733,4.8733,4.8701,4.8699,4.8697,4.8695,4.8735,4.8739,4.8742,4.8806,0,0,4.8753,4.8754,0,0,0,0,0,0,0,0,4.8621,4.8628,4.8681,4.8681,4.868,4.8709,4.8708,4.8757,4.8702,4.8693,4.8696,4.8694,4.8729,4.8733,4.8745,4.8808,4.8809,4.8753,4.8755,4.8757,4.8758,0,0,0,0,0,0,0,4.8618,4.8626,4.8706,4.8682,4.8681,4.8672,4.8676,4.8717,4.8722,4.8693,4.8691,4.8697,4.8728,4.8742,4.8746,4.881,4.8753,4.8756,4.8758,4.876,4.8924,4.8926,0,0,0,0,0,0,4.8616,4.8623,4.8705,4.8708,4.8645,4.8676,4.868,4.8702,4.8722,4.8723,4.8699,4.8695,4.8737,4.8742,4.8747,4.8822,4.8757,4.876,4.8762,4.8922,4.8925,4.8927,0,0,0,0,0,0,4.8614,4.8624,4.8703,4.8665,4.8674,4.868,4.8704,4.8704,4.8717,4.8725,4.8726,4.8712,4.8736,4.8742,4.8791,4.8823,4.8762,4.8765,4.8919,4.8923,4.8926,4.8972,0,0,0,0,0,0,4.8611,4.8623,4.8649,4.8666,4.8677,4.8748,4.8706,4.8706,4.8724,4.872,4.8738,4.8739,4.8734,4.8786,4.8795,4.8827,4.8768,4.8916,4.8921,4.8925,4.8968,4.8977,4.8984,0,0,0,0,0,4.8607,4.866,4.865,4.866,4.8709,4.875,4.8756,4.8751,4.8727,4.8751,4.8756,4.8738,4.8818,4.8791,4.8801,4.8834,4.8914,4.892,4.8924,4.8964,4.8975,4.8984,0,0,0,0,0,0,4.8645,4.8662,4.8651,4.8711,4.873,4.8744,4.8775,4.8762,4.8787,4.8782,4.8774,4.8778,4.8829,4.8836,4.8806,4.8896,4.8862,4.8869,4.8889,4.8899,4.8907,4.8904,4.8771,0,0,0,0,0,4.8661,4.8694,4.8706,4.8758,4.8768,4.877,4.8788,4.8782,4.88,4.8808,4.8816,4.8833,4.8862,4.8881,4.8908,4.8969,4.8971,4.8996,4.9004,4.9011,4.9017,4.9048,4.9059,4.8944,4.8944,4.8943,0,0,4.8693,4.8706,4.8728,4.8766,4.878,4.8813,4.8777,4.8814,4.8838,4.8813,4.8859,4.8866,4.8885,4.8939,4.8964,4.8947,4.905,4.9018,4.9023,4.9025,4.9054,4.9065,4.9075,4.8947,4.8946,4.8946,0,0,4.8769,4.8783,4.8827,4.8841,4.8862,4.8863,4.8873,4.889,4.8893,4.894,4.8921,4.8949,4.9,4.9013,4.9027,4.9106,4.909,4.9115,4.9158,4.9188,4.9197,4.9205,4.9232,4.9242,4.9121,4.9121,4.9121,0,4.8806,4.8857,4.8851,4.8889,4.8906,4.8885,4.8928,4.8942,4.897,4.8981,4.8963,4.9024,4.9035,4.9092,4.9111,4.9123,4.9134,4.9113,4.9196,4.9204,4.9211,4.9237,4.9247,4.9124,4.9124,4.9123,4.9123,0,4.8901,4.8936,4.8969,4.8997,4.9017,4.9058,4.9057,4.9078,4.907,4.9072,4.9119,4.9131,4.916,4.9173,4.9166,4.9228,4.9217,4.9198,4.9163,4.9225,4.9249,4.9259,4.9128,4.9127,4.9126,4.9125,0,0,4.9003,4.9026,4.9038,4.905,4.9071,4.9097,4.9136,4.9164,4.9182,4.9202,4.9233,4.9275,4.9257,4.9272,4.9266,4.9292,4.9353,4.9269,4.9269,4.9283,4.942,4.9434,4.9446,4.9342,4.9344,4.9346,4.9418,0,4.9078,4.9147,4.9142,4.9206,4.9237,4.9217,4.9251,4.9266,4.9269,4.9295,4.9298,4.9328,4.9302,4.9311,4.9336,4.934,4.938,4.9335,4.937,4.9371,4.9365,4.9459,4.9474,4.9542,4.9428,4.9429,4.943,0,4.9176,4.92,4.9267,4.9282,4.9294,4.9325,4.935,4.9375,4.9391,4.9392,4.9408,4.9397,4.9434,4.94,4.9451,4.942,4.9434,4.9438,4.944,4.9443,4.9404,4.9462,4.9564,4.9574,4.9445,4.9444,4.9443,0,4.9242,4.9291,4.9337,4.9348,4.9366,4.9387,4.9396,4.941,4.9427,4.9448,4.9459,4.9484,4.9498,4.9517,4.9512,4.9488,4.9563,4.9529,4.9563,4.9563,4.9579,4.9578,4.9683,4.959,4.959,4.959,4.959,0,4.9327,4.9369,4.9366,4.9395,4.944,4.9433,4.9478,4.9483,4.9496,4.9524,4.9508,4.9534,4.9527,4.9553,4.9549,4.9591,4.9597,4.9597,4.9596,4.9598,4.9598,4.9607,4.9601,4.9592,4.9592,4.9591,4.9591,0,4.9409,4.9409,4.9458,4.9471,4.9475,4.9508,4.9518,4.9544,4.9545,4.958,4.9588,4.959,4.9619,4.9616,4.9649,4.9647,4.9698,4.9691,4.9692,4.9691,4.9725,4.9721,4.9838,4.9853,4.9751,4.9752,4.9753,0,4.9463,4.9494,4.951,4.9528,4.9538,4.9567,4.9584,4.9578,4.9596,4.9616,4.9639,4.9667,4.9688,4.9736,4.9739,4.9763,4.9756,4.9796,4.976,4.9761,4.9756,4.9753,4.9756,4.9803,4.9804,4.9805,4.9806,0,4.9558,4.9556,4.9582,4.9607,4.9627,4.9647,4.9664,4.968,4.9675,4.9696,4.9725,4.9742,4.9775,4.9802,4.9825,4.9832,4.9818,4.9817,4.9826,4.9828,4.9827,4.9827,4.9711,4.9814,4.9813,4.9813,4.9812,4.9812,4.9627,4.9653,4.9668,4.9696,4.9709,4.9725,4.975,4.9754,4.9779,4.9805,4.98,4.9833,4.9846,4.9876,4.9885,4.991,4.9896,4.9909,4.9912,4.9915,4.9919,4.9824,4.9914,4.9914,4.9914,4.9914,4.9913,0,4.972,4.9728,4.9755,4.9779,4.9801,4.9786,4.9804,4.9823,4.9853,4.9867,4.9888,4.9922,4.9947,4.9953,4.9977,4.9996,4.9989,5.0002,5.0,5.0002,4.9931,4.992,5.0007,5.0007,5.0007,5.0007,5.0007,5.0007,4.9771,4.9814,4.9814,4.9863,4.987,4.9903,4.9914,4.9929,4.994,4.9978,4.9999,5.0002,5.0013,5.0037,5.006,5.006,5.0069,5.0085,5.0083,5.0016,5.0007,4.9998,4.9988,5.0087,5.0087,5.0151,5.0152,5.0152]}]]